OBJECT P, 64889

Orbit data source: Space-Track

You're viewing an Uncataloged Satellite

Recently launched and/or uncataloged satellites may have evolving metadata. Metadata may include but not limited to: Owner, Maufacturer, Bus, Motor, and Mission.

OBJECT P, 64889 is a satellite in SSO that was launched on Fri, 25 Jul 2025 UTC via a SOYUZ-2-1B launch vehicle from the Vostochny Cosmodrome (VOSTO). Unknown objects in Earth's orbit typically refer to objects detected orbiting the Earth but have not yet been identified or cataloged. These objects could be anything from previously untracked satellites, spent rocket stages, debris from satellite collisions, or even natural meteoroids temporarily captured by Earth's gravity.

Loading next visibility...
Identifier
64889, 2025-155P
Orbit
SSO
Country
Flag of TBDTBD
Related business
None
Manufacturer
Unknown
Mission
Operational Commercial Technology
Bus & Motor
Unknown
Mass
Unknown
Launch date (UTC)
2025-07-25 (8 months ago)
Launch vehicle
SOYUZ-2-1B
Launch site
Vostochny Cosmodrome (VOSTO)
Object type
Unknown
Shape & HBR
Box, 1.1 m
Radar Cross Section
0.035 m², Medium (>0.1 m² and < 1m²)

Expand to show TLE details & history
Last TLE update: 10 hours ago

TLE from 10 hours ago
0 OBJECT P
1 64889U 25155P   26073.91295224  .00007842  00000-0  31193-3 0  9996
2 64889  97.4495  41.9925 0008556 138.0084 222.1811 15.25520539 66335
Epoch: 2026-03-14T21:54Z
TLE epoch observation values (Epoch: 2026-03-14T21:54:39.073Z)
Latitude
-0.00007°
Longitude
-99.19761°
Altitude
496.677 km
Speed
7.614 km/s
True Right ascension
02h 47m 58s
True Declination
0° 00' 00"
Sunlit
Object was in daylight at epoch
Visualization orbit readout
Latitude
Unknown
Longitude
Unknown
Altitude
Unknown
Speed
Unknown
Apparent Right ascension
Unknown
Apparent Declination
Unknown
Sunlit
N/A
Visualization observer readout
Local Sidereal Time
12:20:19
Azimuth
Unknown
Elevation
Unknown
Doppler factor
Unknown
Orbital elements
Apogee altitude
492.056 km
Perigee altitude
480.31 km
Semi-major axis
6,864.32 km
Eccentricity
0.00086
Inclination
97.4495°
RAAN
41.9925°
Arg. of periapsis
138.0084°
True anomaly
222.11532°
Mean anomaly
222.1811°
Eccentric anomaly
222.1482°
Mean motion
3.81634 °/min
Orbital period
94.33 mins
BSTAR
0.00031193
Loading maneuver chart data...
Computing Atmospheric mass density...
Loading historical data...
Loading historical data...
Loading historical data...
Loading historical data...
Loading historical data...
Loading historical data...
Loading historical data...

Documentation

Showing up to 5 results
|